Dades meteomassalio
Diari Summary for Maig 29, 2017 Units:  English    Metric   Both
« Previous Day
Next Day »
Diari Semanal Mensual Anual Personalitzat
  Maxima: Minima: Mijana:
Temperatura: TemperatureC °F 15.0 °F 22.1 °F
Rosada: DewpointC °F 1.8 °F 9.9 °F
Humitat: Humidity % 20 % 51 %
Velocitat del vent: WindSpeedKMH mph 0.0 mph 9.8 mph
Racha vent: WindSpeedGustKMH mph - -
Vent:- - SSE
Pressio: PressurehPa in 1012.1 in -
Pluja: 0.0 in    
Historical Graphs
 
 
Tabular Data for Maig 29, 2017
Time Temperature Dew Point Pressure Wind Wind Speed Wind Gust Humidity Rainfall Rate (Hourly) solar Conditions
TemperatureC °F DewpointC °F PressurehPa in Calm     Humidity % HourlyPrecipMM in SolarRadiationWatts/m^2 W/m2 Conditions
00:02 20.0 °F 13.7 °F 1016.5 in Calm     67 % 0.0 in 0.0 W/m2 CLR
00:07 20.0 °F 13.7 °F 1016.1 in Calm     67 % 0.0 in 0.0 W/m2 CLR
00:12 19.9 °F 13.8 °F 1016.1 in Calm     68 % 0.0 in 0.0 W/m2 CLR
00:17 19.8 °F 13.9 °F 1016.1 in Calm     69 % 0.0 in 0.0 W/m2 CLR
00:22 19.7 °F 14.1 °F 1016.1 in Calm     70 % 0.0 in 0.0 W/m2 CLR
00:27 19.7 °F 14.1 °F 1016.1 in Calm     70 % 0.0 in 0.0 W/m2 CLR
00:32 19.6 °F 14.2 °F 1016.1 in ESE 5.6 mph 5.6 mph 71 % 0.0 in 0.0 W/m2 CLR
00:37 19.6 °F 13.9 °F 1016.1 in Calm     70 % 0.0 in 0.0 W/m2 CLR
00:42 19.5 °F 14.1 °F 1016.1 in Calm     71 % 0.0 in 0.0 W/m2 CLR
00:47 19.4 °F 14.0 °F 1016.1 in Calm     71 % 0.0 in 0.0 W/m2 CLR
00:52 19.3 °F 13.9 °F 1016.1 in Calm     71 % 0.0 in 0.0 W/m2 CLR
00:57 19.3 °F 13.9 °F 1016.5 in Calm     71 % 0.0 in 0.0 W/m2 CLR
01:02 19.3 °F 13.9 °F 1016.5 in Calm     71 % 0.0 in 0.0 W/m2 CLR
01:07 19.3 °F 14.2 °F 1016.5 in Calm     72 % 0.0 in 0.0 W/m2 CLR
01:12 19.3 °F 14.1 °F 1016.1 in Calm     72 % 0.0 in 0.0 W/m2 CLR
01:17 19.3 °F 14.1 °F 1016.1 in Calm     72 % 0.0 in 0.0 W/m2 CLR
01:22 19.2 °F 14.1 °F 1016.1 in Calm     72 % 0.0 in 0.0 W/m2 CLR
01:32 19.2 °F 14.1 °F 1016.1 in Calm     72 % 0.0 in 0.0 W/m2 CLR
01:37 19.2 °F 14.1 °F 1016.1 in Calm     72 % 0.0 in 0.0 W/m2 CLR
01:42 19.1 °F 13.9 °F 1016.1 in Calm     72 % 0.0 in 0.0 W/m2 CLR
01:47 18.9 °F 13.7 °F 1016.1 in Calm     72 % 0.0 in 0.0 W/m2 CLR
01:52 18.8 °F 13.9 °F 1016.1 in Calm     73 % 0.0 in 0.0 W/m2 CLR
01:57 18.7 °F 13.6 °F 1015.8 in Calm     72 % 0.0 in 0.0 W/m2 CLR
02:02 18.7 °F 13.7 °F 1015.8 in Calm     73 % 0.0 in 0.0 W/m2 CLR
02:07 18.7 °F 13.7 °F 1016.1 in Calm     73 % 0.0 in 0.0 W/m2 CLR
02:12 18.7 °F 13.7 °F 1015.8 in Calm     73 % 0.0 in 0.0 W/m2 CLR
02:17 18.8 °F 13.8 °F 1015.8 in Calm     73 % 0.0 in 0.0 W/m2 CLR
02:22 18.9 °F 13.7 °F 1016.1 in SE 5.6 mph 5.6 mph 72 % 0.0 in 0.0 W/m2 CLR
02:27 18.8 °F 13.7 °F 1015.8 in Calm     72 % 0.0 in 0.0 W/m2 CLR
02:32 18.8 °F 13.6 °F 1015.8 in ESE 7.4 mph 7.4 mph 72 % 0.0 in 0.0 W/m2 CLR
02:37 18.7 °F 13.5 °F 1015.8 in Calm     72 % 0.0 in 0.0 W/m2 CLR
02:42 18.4 °F 13.4 °F 1015.8 in Calm     73 % 0.0 in 0.0 W/m2 CLR
02:47 18.3 °F 13.3 °F 1015.8 in Calm     73 % 0.0 in 0.0 W/m2 CLR
02:52 18.2 °F 13.2 °F 1015.8 in Calm     73 % 0.0 in 0.0 W/m2 CLR
02:57 17.9 °F 13.2 °F 1015.8 in Calm     74 % 0.0 in 0.0 W/m2 CLR
03:02 17.8 °F 13.1 °F 1015.8 in Calm     74 % 0.0 in 0.0 W/m2 CLR
03:07 17.7 °F 13.2 °F 1015.8 in Calm     75 % 0.0 in 0.0 W/m2 CLR
03:12 17.8 °F 13.3 °F 1015.8 in Calm     75 % 0.0 in 0.0 W/m2 CLR
03:17 17.9 °F 13.4 °F 1015.8 in Calm     75 % 0.0 in 0.0 W/m2 CLR
03:22 17.7 °F 12.8 °F 1015.8 in Calm     73 % 0.0 in 0.0 W/m2 CLR
03:27 17.6 °F 13.1 °F 1015.8 in Calm     75 % 0.0 in 0.0 W/m2 CLR
03:32 17.4 °F 12.7 °F 1015.8 in Calm     74 % 0.0 in 0.0 W/m2 CLR
03:37 17.1 °F 12.4 °F 1015.8 in Calm     74 % 0.0 in 0.0 W/m2 CLR
03:42 16.9 °F 12.3 °F 1015.8 in Calm     74 % 0.0 in 0.0 W/m2 CLR
03:47 16.6 °F 12.2 °F 1015.8 in Calm     75 % 0.0 in 0.0 W/m2 CLR
03:52 16.4 °F 12.2 °F 1015.8 in Calm     76 % 0.0 in 0.0 W/m2 CLR
03:57 16.2 °F 12.0 °F 1015.8 in Calm     76 % 0.0 in 0.0 W/m2 CLR
04:02 16.1 °F 12.1 °F 1015.5 in Calm     77 % 0.0 in 0.0 W/m2 CLR
04:07 16.0 °F 12.2 °F 1015.5 in Calm     78 % 0.0 in 0.0 W/m2 CLR
04:12 15.9 °F 12.1 °F 1015.5 in Calm     78 % 0.0 in 0.0 W/m2 CLR
04:17 15.8 °F 12.0 °F 1015.5 in Calm     78 % 0.0 in 0.0 W/m2 CLR
04:22 15.8 °F 12.2 °F 1015.5 in Calm     79 % 0.0 in 0.0 W/m2 CLR
04:27 15.7 °F 12.1 °F 1015.5 in Calm     79 % 0.0 in 0.0 W/m2 CLR
04:32 15.5 °F 11.7 °F 1015.5 in Calm     78 % 0.0 in 0.0 W/m2 CLR
04:37 15.4 °F 11.8 °F 1015.5 in Calm     79 % 0.0 in 0.0 W/m2 CLR
04:42 15.3 °F 11.7 °F 1015.1 in Calm     79 % 0.0 in 0.0 W/m2 CLR
04:47 15.3 °F 11.8 °F 1015.5 in Calm     80 % 0.0 in 0.0 W/m2 CLR
04:52 15.3 °F 12.1 °F 1015.5 in Calm     81 % 0.0 in 0.0 W/m2 CLR
04:58 15.3 °F 11.9 °F 1015.5 in Calm     80 % 0.0 in 0.0 W/m2 CLR
05:03 15.3 °F 11.7 °F 1015.1 in Calm     79 % 0.0 in 0.0 W/m2 CLR
05:08 15.2 °F 11.6 °F 1015.1 in Calm     79 % 0.0 in 0.0 W/m2 CLR
05:13 15.1 °F 11.7 °F 1015.1 in Calm     80 % 0.0 in 0.0 W/m2 CLR
05:18 15.1 °F 11.6 °F 1015.1 in Calm     80 % 0.0 in 0.0 W/m2 CLR
05:23 15.1 °F 12.1 °F 1015.1 in NW 5.6 mph 5.6 mph 82 % 0.0 in 0.0 W/m2 CLR
05:28 15.1 °F 11.9 °F 1015.1 in Calm     81 % 0.0 in 0.0 W/m2 CLR
05:33 15.0 °F 11.6 °F 1015.1 in Calm     80 % 0.0 in 0.0 W/m2 CLR
05:38 15.0 °F 11.6 °F 1015.1 in Calm     80 % 0.0 in 0.0 W/m2 CLR
05:48 15.0 °F 11.6 °F 1015.1 in Calm     80 % 0.0 in 0.0 W/m2 CLR
05:53 15.1 °F 11.8 °F 1015.1 in Calm     81 % 0.0 in 0.0 W/m2 CLR
05:58 15.2 °F 11.7 °F 1015.1 in Calm     80 % 0.0 in 0.0 W/m2 CLR
06:03 15.2 °F 11.8 °F 1015.1 in Calm     80 % 0.0 in 0.0 W/m2 CLR
06:08 15.3 °F 11.7 °F 1015.1 in Calm     79 % 0.0 in 0.0 W/m2 CLR
06:13 15.2 °F 11.6 °F 1015.1 in Calm     79 % 0.0 in 0.0 W/m2 CLR
06:18 15.2 °F 11.6 °F 1014.8 in Calm     79 % 0.0 in 0.0 W/m2 CLR
06:23 15.3 °F 11.5 °F 1014.8 in East 5.6 mph 5.6 mph 78 % 0.0 in 0.0 W/m2 OVC
06:28 15.3 °F 11.4 °F 1014.8 in Calm     78 % 0.0 in 0.0 W/m2 OVC
06:33 15.3 °F 11.5 °F 1014.8 in Calm     78 % 0.0 in 0.0 W/m2 OVC
06:38 15.3 °F 11.3 °F 1014.8 in NW 11.1 mph 11.1 mph 77 % 0.0 in 5.0 W/m2 OVC
06:43 15.2 °F 11.6 °F 1014.8 in NNW 5.6 mph 5.6 mph 79 % 0.0 in 9.0 W/m2 BKN
06:48 15.3 °F 11.7 °F 1014.8 in Calm     79 % 0.0 in 12.0 W/m2 BKN
06:53 15.6 °F 11.7 °F 1014.8 in Calm     78 % 0.0 in 16.0 W/m2 BKN
06:58 15.7 °F 11.9 °F 1014.4 in Calm     78 % 0.0 in 21.0 W/m2 BKN
06:59 15.8 °F 11.8 °F 1014.4 in Calm     77 % 0.0 in 23.0 W/m2 BKN
07:04 15.9 °F 11.8 °F 1014.4 in Calm     77 % 0.0 in 30.0 W/m2 BKN
07:09 16.1 °F 11.8 °F 1014.4 in Calm     76 % 0.0 in 37.0 W/m2 BKN
07:14 16.2 °F 12.0 °F 1014.4 in Calm     76 % 0.0 in 46.0 W/m2 SCT
07:19 16.3 °F 11.9 °F 1014.4 in Calm     75 % 0.0 in 54.0 W/m2 SCT
07:24 16.4 °F 12.0 °F 1014.4 in Calm     75 % 0.0 in 62.0 W/m2 SCT
07:29 16.6 °F 11.9 °F 1014.4 in Calm     74 % 0.0 in 67.0 W/m2 FEW
07:34 16.7 °F 12.1 °F 1014.4 in Calm     74 % 0.0 in 74.0 W/m2 FEW
07:39 16.8 °F 12.1 °F 1014.4 in Calm     74 % 0.0 in 86.0 W/m2 FEW
07:44 16.9 °F 12.2 °F 1014.4 in Calm     74 % 0.0 in 104.0 W/m2 FEW
07:49 17.0 °F 12.3 °F 1014.4 in Calm     74 % 0.0 in 105.0 W/m2 CLR
07:54 17.2 °F 12.6 °F 1014.4 in Calm     74 % 0.0 in 105.0 W/m2 CLR
07:59 17.4 °F 12.5 °F 1014.4 in Calm     73 % 0.0 in 116.0 W/m2 CLR
08:04 17.6 °F 12.5 °F 1014.4 in Calm     72 % 0.0 in 132.0 W/m2 CLR
08:09 17.8 °F 12.5 °F 1014.4 in Calm     71 % 0.0 in 155.0 W/m2 CLR
08:14 18.2 °F 12.6 °F 1014.4 in Calm     70 % 0.0 in 178.0 W/m2 CLR
08:19 18.4 °F 12.7 °F 1014.8 in Calm     69 % 0.0 in 229.0 W/m2 CLR
08:24 18.7 °F 12.7 °F 1014.8 in Calm     68 % 0.0 in 213.0 W/m2 CLR
08:30 19.1 °F 12.8 °F 1014.4 in Calm     67 % 0.0 in 174.0 W/m2 CLR
08:35 19.3 °F 13.1 °F 1014.4 in Calm     67 % 0.0 in 155.0 W/m2 CLR
08:40 19.4 °F 13.2 °F 1014.4 in Calm     67 % 0.0 in 130.0 W/m2 CLR
08:45 19.6 °F 13.3 °F 1014.4 in Calm     67 % 0.0 in 144.0 W/m2 CLR
08:50 19.6 °F 13.3 °F 1014.4 in ENE 5.6 mph 5.6 mph 67 % 0.0 in 149.0 W/m2 CLR
08:55 19.5 °F 13.7 °F 1014.4 in Calm     69 % 0.0 in 142.0 W/m2 CLR
09:00 19.5 °F 14.1 °F 1014.4 in East 8.0 mph 8.0 mph 71 % 0.0 in 190.0 W/m2 CLR
09:05 19.7 °F 14.3 °F 1014.4 in ESE 9.7 mph 9.7 mph 71 % 0.0 in 250.0 W/m2 CLR
09:10 19.9 °F 14.3 °F 1014.4 in ESE 11.1 mph 11.1 mph 70 % 0.0 in 283.0 W/m2 CLR
09:15 20.1 °F 14.2 °F 1014.1 in East 11.1 mph 11.1 mph 69 % 0.0 in 234.0 W/m2 CLR
09:20 20.3 °F 14.4 °F 1014.4 in Calm     69 % 0.0 in 239.0 W/m2 CLR
09:25 20.6 °F 14.4 °F 1014.4 in Calm     68 % 0.0 in 352.0 W/m2 CLR
09:30 20.9 °F 14.3 °F 1014.4 in Calm     66 % 0.0 in 374.0 W/m2 CLR
09:35 21.3 °F 14.2 °F 1014.4 in Calm     64 % 0.0 in 420.0 W/m2 CLR
09:40 21.7 °F 14.1 °F 1014.4 in Calm     62 % 0.0 in 522.0 W/m2 CLR
09:45 22.0 °F 14.4 °F 1014.4 in Calm     62 % 0.0 in 471.0 W/m2 CLR
09:50 22.4 °F 14.2 °F 1014.4 in Calm     60 % 0.0 in 504.0 W/m2 CLR
09:55 22.5 °F 13.8 °F 1014.4 in Calm     58 % 0.0 in 390.0 W/m2 CLR
10:00 22.7 °F 13.8 °F 1014.4 in Calm     57 % 0.0 in 422.0 W/m2 CLR
10:06 23.1 °F 14.3 °F 1014.4 in Calm     58 % 0.0 in 390.0 W/m2 CLR
10:11 23.2 °F 14.7 °F 1014.1 in Calm     59 % 0.0 in 534.0 W/m2 CLR
10:16 23.5 °F 14.2 °F 1014.1 in Calm     56 % 0.0 in 693.0 W/m2 CLR
10:21 23.8 °F 13.7 °F 1014.1 in Calm     53 % 0.0 in 731.0 W/m2 CLR
10:26 24.1 °F 13.3 °F 1014.1 in Calm     51 % 0.0 in 570.0 W/m2 CLR
10:31 24.3 °F 12.9 °F 1014.1 in Calm     49 % 0.0 in 589.0 W/m2 CLR
10:36 24.4 °F 11.7 °F 1014.1 in Calm     45 % 0.0 in 515.0 W/m2 CLR
10:41 24.8 °F 12.1 °F 1013.4 in Calm     45 % 0.0 in 364.0 W/m2 CLR
10:46 24.9 °F 11.8 °F 1014.1 in NW 9.7 mph 9.7 mph 44 % 0.0 in 457.0 W/m2 CLR
10:51 25.0 °F 10.8 °F 1013.8 in Calm     41 % 0.0 in 436.0 W/m2 CLR
10:56 25.3 °F 9.9 °F 1014.1 in Calm     38 % 0.0 in 561.0 W/m2 CLR
11:01 25.7 °F 5.3 °F 1014.1 in SW 18.5 mph 18.5 mph 27 % 0.0 in 519.0 W/m2 CLR
11:06 25.8 °F 4.3 °F 1014.1 in South 24.1 mph 24.1 mph 25 % 0.0 in 418.0 W/m2 CLR
11:11 25.8 °F 4.8 °F 1014.1 in South 12.9 mph 12.9 mph 26 % 0.0 in 443.0 W/m2 CLR
11:16 25.8 °F 4.8 °F 1014.1 in South 20.4 mph 20.4 mph 26 % 0.0 in 490.0 W/m2 CLR
11:21 25.9 °F 4.9 °F 1014.1 in South 13.0 mph 13.0 mph 26 % 0.0 in 512.0 W/m2 CLR
11:26 26.0 °F 5.0 °F 1013.8 in South 7.4 mph 7.4 mph 26 % 0.0 in 459.0 W/m2 CLR
11:31 26.3 °F 4.7 °F 1013.8 in SSW 17.7 mph 17.7 mph 25 % 0.0 in 466.0 W/m2 CLR
11:36 26.2 °F 4.6 °F 1013.8 in SSE 14.8 mph 14.8 mph 25 % 0.0 in 411.0 W/m2 CLR
11:41 26.1 °F 4.5 °F 1013.8 in South 11.1 mph 11.1 mph 25 % 0.0 in 499.0 W/m2 CLR
11:46 26.3 °F 4.7 °F 1013.8 in South 11.3 mph 11.3 mph 25 % 0.0 in 615.0 W/m2 CLR
11:51 26.7 °F 4.4 °F 1013.8 in South 20.4 mph 20.4 mph 24 % 0.0 in 896.0 W/m2 CLR
11:56 26.6 °F 3.7 °F 1013.8 in ESE 24.1 mph 24.1 mph 23 % 0.0 in 914.0 W/m2 CLR
12:01 26.9 °F 4.1 °F 1013.8 in South 22.2 mph 22.2 mph 23 % 0.0 in 745.0 W/m2 CLR
12:06 26.6 °F 3.7 °F 1013.8 in South 25.9 mph 25.9 mph 23 % 0.0 in 422.0 W/m2 CLR
12:11 26.3 °F 3.6 °F 1013.8 in South 20.4 mph 20.4 mph 23 % 0.0 in 464.0 W/m2 CLR
12:16 26.4 °F 3.0 °F 1013.8 in SE 16.7 mph 16.7 mph 22 % 0.0 in 403.0 W/m2 CLR
12:21 26.4 °F 2.3 °F 1013.8 in South 20.4 mph 20.4 mph 21 % 0.0 in 352.0 W/m2 CLR
12:26 26.6 °F 3.1 °F 1013.8 in South 19.3 mph 19.3 mph 22 % 0.0 in 858.0 W/m2 CLR
12:31 26.6 °F 2.4 °F 1013.8 in South 16.7 mph 16.7 mph 21 % 0.0 in 954.0 W/m2 CLR
12:36 26.6 °F 1.8 °F 1013.8 in SE 18.5 mph 18.5 mph 20 % 0.0 in 330.0 W/m2 CLR
12:41 26.9 °F 2.0 °F 1013.4 in SSE 11.1 mph 11.1 mph 20 % 0.0 in 573.0 W/m2 CLR
12:46 27.1 °F 3.5 °F 1013.4 in ESE 20.4 mph 20.4 mph 22 % 0.0 in 550.0 W/m2 CLR
12:51 26.8 °F 3.3 °F 1013.4 in South 16.7 mph 16.7 mph 22 % 0.0 in 496.0 W/m2 CLR
12:56 27.1 °F 3.5 °F 1013.4 in SSE 16.7 mph 16.7 mph 22 % 0.0 in 1106.0 W/m2 CLR
13:01 27.0 °F 3.4 °F 1013.4 in East 9.3 mph 9.3 mph 22 % 0.0 in 977.0 W/m2 CLR
13:06 27.3 °F 3.7 °F 1013.1 in SSE 14.5 mph 14.5 mph 22 % 0.0 in 998.0 W/m2 CLR
13:11 27.5 °F 3.9 °F 1013.1 in SSE 18.5 mph 18.5 mph 22 % 0.0 in 990.0 W/m2 CLR
13:16 27.6 °F 5.2 °F 1013.1 in SE 11.3 mph 11.3 mph 24 % 0.0 in 949.0 W/m2 CLR
13:21 27.8 °F 3.5 °F 1013.1 in South 13.0 mph 13.0 mph 21 % 0.0 in 942.0 W/m2 CLR
13:26 27.9 °F 4.2 °F 1013.1 in Calm     22 % 0.0 in 937.0 W/m2 CLR
13:31 28.4 °F 4.6 °F 1012.8 in SSE 18.5 mph 18.5 mph 22 % 0.0 in 939.0 W/m2 CLR
13:36 28.2 °F 5.7 °F 1013.1 in SE 17.7 mph 17.7 mph 24 % 0.0 in 930.0 W/m2 CLR
13:41 28.1 °F 5.0 °F 1013.1 in ESE 18.5 mph 18.5 mph 23 % 0.0 in 935.0 W/m2 CLR
13:46 28.1 °F 5.6 °F 1013.1 in SE 16.7 mph 16.7 mph 24 % 0.0 in 912.0 W/m2 CLR
13:51 27.9 °F 6.6 °F 1012.8 in SE 20.4 mph 20.4 mph 26 % 0.0 in 977.0 W/m2 CLR
13:56 27.9 °F 7.2 °F 1013.1 in SE 20.9 mph 20.9 mph 27 % 0.0 in 967.0 W/m2 CLR
14:01 27.6 °F 7.4 °F 1012.8 in ESE 25.7 mph 25.7 mph 28 % 0.0 in 1013.0 W/m2 CLR
14:06 27.6 °F 7.4 °F 1012.8 in ESE 20.4 mph 20.4 mph 28 % 0.0 in 976.0 W/m2 CLR
14:11 27.7 °F 8.0 °F 1012.8 in ESE 27.8 mph 27.8 mph 29 % 0.0 in 979.0 W/m2 CLR
14:16 27.8 °F 7.6 °F 1012.8 in SE 24.1 mph 24.1 mph 28 % 0.0 in 995.0 W/m2 CLR
14:21 28.1 °F 7.9 °F 1012.8 in South 18.5 mph 18.5 mph 28 % 0.0 in 974.0 W/m2 CLR
14:26 28.2 °F 7.9 °F 1012.8 in SSE 18.5 mph 18.5 mph 28 % 0.0 in 995.0 W/m2 CLR
14:31 28.0 °F 7.3 °F 1012.8 in SSE 27.8 mph 27.8 mph 27 % 0.0 in 1069.0 W/m2 CLR
14:36 27.9 °F 8.7 °F 1012.8 in SE 24.1 mph 24.1 mph 30 % 0.0 in 998.0 W/m2 CLR
14:41 27.9 °F 8.2 °F 1012.8 in SE 25.9 mph 25.9 mph 29 % 0.0 in 974.0 W/m2 CLR
14:46 28.0 °F 9.3 °F 1012.4 in SSE 24.1 mph 24.1 mph 31 % 0.0 in 960.0 W/m2 CLR
14:49 27.8 °F 9.6 °F 1012.8 in SSE 31.5 mph 31.5 mph 32 % 0.0 in 953.0 W/m2 CLR
14:54 27.7 °F 9.5 °F 1012.4 in SSE 22.2 mph 22.2 mph 32 % 0.0 in 944.0 W/m2 CLR
14:59 27.8 °F 10.1 °F 1012.4 in ESE 35.2 mph 35.2 mph 33 % 0.0 in 967.0 W/m2 CLR
15:04 27.5 °F 9.8 °F 1012.4 in SE 29.0 mph 29.0 mph 33 % 0.0 in 958.0 W/m2 CLR
15:09 27.5 °F 9.8 °F 1012.4 in ESE 32.2 mph 32.2 mph 33 % 0.0 in 914.0 W/m2 CLR
15:19 27.4 °F 10.2 °F 1012.4 in SE 29.6 mph 29.6 mph 34 % 0.0 in 911.0 W/m2 CLR
15:24 27.4 °F 10.1 °F 1012.4 in South 24.1 mph 24.1 mph 34 % 0.0 in 951.0 W/m2 CLR
15:25 27.4 °F 10.2 °F 1012.4 in ESE 20.4 mph 20.4 mph 34 % 0.0 in 970.0 W/m2 CLR
15:30 27.4 °F 10.1 °F 1012.4 in SE 35.2 mph 35.2 mph 34 % 0.0 in 970.0 W/m2 CLR
15:35 27.3 °F 10.5 °F 1012.4 in ESE 18.5 mph 18.5 mph 35 % 0.0 in 960.0 W/m2 CLR
15:40 27.5 °F 10.2 °F 1012.4 in ESE 25.7 mph 25.7 mph 34 % 0.0 in 930.0 W/m2 CLR
15:45 27.4 °F 9.7 °F 1012.4 in SE 29.6 mph 29.6 mph 33 % 0.0 in 912.0 W/m2 CLR
15:50 27.3 °F 9.7 °F 1012.4 in SE 31.5 mph 31.5 mph 33 % 0.0 in 867.0 W/m2 CLR
15:55 27.3 °F 8.7 °F 1012.4 in SE 29.6 mph 29.6 mph 31 % 0.0 in 851.0 W/m2 CLR
16:00 27.3 °F 7.7 °F 1012.4 in SSE 18.5 mph 18.5 mph 29 % 0.0 in 831.0 W/m2 CLR
16:05 27.2 °F 7.6 °F 1012.4 in SE 25.9 mph 25.9 mph 29 % 0.0 in 819.0 W/m2 CLR
16:10 27.3 °F 7.2 °F 1012.4 in SE 31.5 mph 31.5 mph 28 % 0.0 in 793.0 W/m2 CLR
16:15 27.3 °F 7.7 °F 1012.1 in SSE 29.6 mph 29.6 mph 29 % 0.0 in 772.0 W/m2 CLR
16:20 27.6 °F 7.4 °F 1012.1 in SE 27.8 mph 27.8 mph 28 % 0.0 in 724.0 W/m2 CLR
16:25 27.3 °F 7.7 °F 1012.1 in SE 31.5 mph 31.5 mph 29 % 0.0 in 763.0 W/m2 CLR
16:30 27.2 °F 8.1 °F 1012.1 in SE 20.9 mph 20.9 mph 30 % 0.0 in 796.0 W/m2 CLR
16:35 27.4 °F 6.8 °F 1012.1 in SE 25.9 mph 25.9 mph 27 % 0.0 in 292.0 W/m2 CLR
16:40 27.2 °F 6.6 °F 1012.1 in SSE 25.9 mph 25.9 mph 27 % 0.0 in 330.0 W/m2 CLR
16:45 26.9 °F 6.3 °F 1012.1 in ESE 20.9 mph 20.9 mph 27 % 0.0 in 431.0 W/m2 CLR
16:50 27.3 °F 6.6 °F 1012.1 in ESE 22.5 mph 22.5 mph 27 % 0.0 in 431.0 W/m2 CLR
16:55 27.2 °F 6.1 °F 1012.1 in SE 18.5 mph 18.5 mph 26 % 0.0 in 431.0 W/m2 CLR
17:00 27.1 °F 5.9 °F 1012.1 in ESE 22.2 mph 22.2 mph 26 % 0.0 in 826.0 W/m2 CLR
17:05 27.3 °F 6.1 °F 1012.1 in SE 29.6 mph 29.6 mph 26 % 0.0 in 761.0 W/m2 CLR
17:10 27.3 °F 6.1 °F 1012.1 in SE 31.5 mph 31.5 mph 26 % 0.0 in 717.0 W/m2 CLR
17:15 27.2 °F 6.1 °F 1012.1 in SE 18.5 mph 18.5 mph 26 % 0.0 in 666.0 W/m2 CLR
17:20 27.4 °F 6.2 °F 1012.1 in SSE 22.5 mph 22.5 mph 26 % 0.0 in 654.0 W/m2 CLR
17:25 27.2 °F 6.1 °F 1012.1 in ESE 27.8 mph 27.8 mph 26 % 0.0 in 638.0 W/m2 CLR
17:30 27.1 °F 6.5 °F 1012.1 in ESE 20.4 mph 20.4 mph 27 % 0.0 in 633.0 W/m2 CLR
17:35 27.1 °F 6.4 °F 1012.1 in SE 29.6 mph 29.6 mph 27 % 0.0 in 606.0 W/m2 CLR
17:40 27.1 °F 6.5 °F 1012.1 in ESE 18.5 mph 18.5 mph 27 % 0.0 in 592.0 W/m2 CLR
17:45 27.2 °F 6.6 °F 1012.1 in ESE 22.2 mph 22.2 mph 27 % 0.0 in 578.0 W/m2 CLR
17:50 27.4 °F 6.8 °F 1012.1 in SE 32.2 mph 32.2 mph 27 % 0.0 in 563.0 W/m2 CLR
17:55 27.1 °F 7.0 °F 1012.1 in SSE 29.0 mph 29.0 mph 28 % 0.0 in 545.0 W/m2 CLR
18:00 27.0 °F 6.9 °F 1012.1 in SE 29.6 mph 29.6 mph 28 % 0.0 in 529.0 W/m2 CLR
18:05 27.1 °F 7.0 °F 1012.1 in SSE 31.5 mph 31.5 mph 28 % 0.0 in 513.0 W/m2 CLR
18:10 26.8 °F 6.8 °F 1012.1 in SSE 24.1 mph 24.1 mph 28 % 0.0 in 497.0 W/m2 CLR
18:15 26.7 °F 6.2 °F 1012.1 in SSE 31.5 mph 31.5 mph 27 % 0.0 in 483.0 W/m2 CLR
18:20 26.6 °F 6.6 °F 1012.1 in South 14.8 mph 14.8 mph 28 % 0.0 in 468.0 W/m2 CLR
18:25 27.0 °F 6.4 °F 1012.1 in SE 11.1 mph 11.9 mph 27 % 0.0 in 452.0 W/m2 CLR
18:30 26.8 °F 6.2 °F 1012.1 in SE 24.1 mph 24.1 mph 27 % 0.0 in 438.0 W/m2 CLR
18:35 26.7 °F 6.1 °F 1012.1 in ESE 18.5 mph 18.5 mph 27 % 0.0 in 422.0 W/m2 CLR
18:40 26.4 °F 5.4 °F 1012.1 in SE 25.9 mph 25.9 mph 26 % 0.0 in 404.0 W/m2 CLR
18:45 26.4 °F 5.9 °F 1012.1 in SE 19.3 mph 19.3 mph 27 % 0.0 in 390.0 W/m2 CLR
18:50 26.4 °F 5.3 °F 1012.1 in SE 24.1 mph 24.1 mph 26 % 0.0 in 374.0 W/m2 CLR
18:55 26.2 °F 5.2 °F 1012.1 in SSE 29.6 mph 29.6 mph 26 % 0.0 in 362.0 W/m2 CLR
19:00 26.1 °F 5.7 °F 1012.1 in SSE 20.4 mph 20.4 mph 27 % 0.0 in 345.0 W/m2 CLR
19:05 26.0 °F 5.6 °F 1012.1 in SSE 22.2 mph 22.2 mph 27 % 0.0 in 330.0 W/m2 CLR
19:10 26.1 °F 6.1 °F 1012.1 in South 18.5 mph 18.5 mph 28 % 0.0 in 315.0 W/m2 CLR
19:15 26.1 °F 6.2 °F 1012.1 in SSE 20.4 mph 20.4 mph 28 % 0.0 in 301.0 W/m2 CLR
19:20 26.1 °F 6.1 °F 1012.1 in SE 24.1 mph 24.1 mph 28 % 0.0 in 281.0 W/m2 CLR
19:25 26.1 °F 6.2 °F 1012.1 in SSE 18.5 mph 18.5 mph 28 % 0.0 in 267.0 W/m2 CLR
19:30 26.1 °F 6.6 °F 1012.1 in SE 14.8 mph 14.8 mph 29 % 0.0 in 251.0 W/m2 CLR
19:35 25.6 °F 7.2 °F 1012.1 in SE 25.9 mph 25.9 mph 31 % 0.0 in 239.0 W/m2 CLR
19:40 25.4 °F 7.5 °F 1012.1 in SE 18.5 mph 18.5 mph 32 % 0.0 in 223.0 W/m2 CLR
19:46 25.3 °F 7.8 °F 1012.1 in SE 25.9 mph 25.9 mph 33 % 0.0 in 204.0 W/m2 CLR
19:51 25.2 °F 7.8 °F 1012.1 in ESE 18.5 mph 18.5 mph 33 % 0.0 in 188.0 W/m2 CLR
19:56 25.2 °F 7.7 °F 1012.1 in SSE 20.4 mph 20.4 mph 33 % 0.0 in 172.0 W/m2 CLR
20:01 25.1 °F 7.7 °F 1012.1 in SSE 19.3 mph 19.3 mph 33 % 0.0 in 156.0 W/m2 CLR
20:06 25.1 °F 7.7 °F 1012.1 in South 13.0 mph 13.0 mph 33 % 0.0 in 139.0 W/m2 CLR
20:11 25.2 °F 6.8 °F 1012.1 in SE 16.1 mph 16.1 mph 31 % 0.0 in 125.0 W/m2 CLR
20:16 24.9 °F 8.0 °F 1012.1 in SE 14.8 mph 14.8 mph 34 % 0.0 in 109.0 W/m2 CLR
20:21 24.8 °F 8.3 °F 1012.4 in SE 13.0 mph 13.0 mph 35 % 0.0 in 95.0 W/m2 CLR
20:26 24.6 °F 8.5 °F 1012.4 in SE 18.5 mph 18.5 mph 36 % 0.0 in 81.0 W/m2 FEW
20:31 24.2 °F 8.6 °F 1012.4 in SSE 16.1 mph 16.1 mph 37 % 0.0 in 47.0 W/m2 SCT
20:36 24.0 °F 8.4 °F 1012.4 in SSE 14.8 mph 14.8 mph 37 % 0.0 in 30.0 W/m2 BKN
20:41 23.8 °F 8.7 °F 1012.8 in SSE 14.8 mph 14.8 mph 38 % 0.0 in 25.0 W/m2 BKN
20:46 23.7 °F 8.5 °F 1012.8 in SSE 16.7 mph 16.7 mph 38 % 0.0 in 16.0 W/m2 BKN
20:51 23.5 °F 8.7 °F 1012.8 in SSE 13.0 mph 13.0 mph 39 % 0.0 in 9.0 W/m2 BKN
20:56 23.3 °F 8.9 °F 1013.1 in SE 14.8 mph 14.8 mph 40 % 0.0 in 7.0 W/m2 BKN
21:01 23.1 °F 9.1 °F 1013.1 in SSE 14.8 mph 14.8 mph 41 % 0.0 in 5.0 W/m2 OVC
21:06 22.9 °F 9.3 °F 1013.1 in SE 7.4 mph 7.4 mph 42 % 0.0 in 5.0 W/m2 OVC
21:11 22.7 °F 9.5 °F 1013.1 in SSE 11.1 mph 11.1 mph 43 % 0.0 in 0.0 W/m2 OVC
21:16 22.6 °F 9.7 °F 1013.1 in SSE 7.4 mph 7.4 mph 44 % 0.0 in 0.0 W/m2 OVC
21:21 22.4 °F 9.6 °F 1013.1 in SE 5.6 mph 5.6 mph 44 % 0.0 in 0.0 W/m2 OVC
21:26 22.3 °F 9.4 °F 1013.1 in SSE 9.3 mph 9.3 mph 44 % 0.0 in 0.0 W/m2 OVC
21:31 22.2 °F 9.3 °F 1013.4 in SSE 9.3 mph 9.3 mph 44 % 0.0 in 0.0 W/m2 OVC
21:36 22.1 °F 9.6 °F 1013.4 in Calm     45 % 0.0 in 0.0 W/m2 CLR
21:41 22.1 °F 9.6 °F 1013.4 in SE 7.4 mph 7.4 mph 45 % 0.0 in 0.0 W/m2 CLR
21:46 21.9 °F 9.4 °F 1013.4 in South 5.6 mph   45 % 0.0 in 0.0 W/m2 CLR
21:51 21.8 °F 9.7 °F 1013.8 in SE 5.6 mph 5.6 mph 46 % 0.0 in 0.0 W/m2 CLR
21:56 21.7 °F 10.2 °F 1013.8 in SE 9.3 mph 9.3 mph 48 % 0.0 in 0.0 W/m2 CLR
22:01 21.5 °F 10.0 °F 1013.8 in ESE 5.6 mph 5.6 mph 48 % 0.0 in 0.0 W/m2 CLR
22:06 21.4 °F 10.2 °F 1013.8 in Calm     49 % 0.0 in 0.0 W/m2 CLR
22:11 21.2 °F 10.1 °F 1013.8 in Calm     49 % 0.0 in 0.0 W/m2 CLR
22:16 21.2 °F 10.0 °F 1013.8 in Calm     49 % 0.0 in 0.0 W/m2 CLR
22:21 21.1 °F 10.2 °F 1013.8 in SSE 7.4 mph 7.4 mph 50 % 0.0 in 0.0 W/m2 CLR
22:26 20.9 °F 10.4 °F 1014.1 in SSE 9.3 mph 9.3 mph 51 % 0.0 in 0.0 W/m2 CLR
22:31 20.7 °F 10.5 °F 1014.1 in Calm     52 % 0.0 in 0.0 W/m2 CLR
22:36 20.6 °F 10.4 °F 1014.1 in Calm     52 % 0.0 in 0.0 W/m2 CLR
22:41 20.4 °F 10.6 °F 1014.4 in Calm     53 % 0.0 in 0.0 W/m2 CLR
22:46 20.3 °F 10.7 °F 1014.4 in Calm     54 % 0.0 in 0.0 W/m2 CLR
22:51 20.2 °F 10.6 °F 1014.4 in Calm     54 % 0.0 in 0.0 W/m2 CLR
22:56 20.2 °F 10.8 °F 1014.4 in SE 6.4 mph 6.4 mph 55 % 0.0 in 0.0 W/m2 CLR
23:01 20.1 °F 11.0 °F 1014.4 in SSE 5.6 mph 5.6 mph 56 % 0.0 in 0.0 W/m2 CLR
23:06 19.9 °F 11.2 °F 1014.4 in SE 5.6 mph 5.6 mph 57 % 0.0 in 0.0 W/m2 CLR
23:12 19.9 °F 11.4 °F 1014.4 in ESE 7.4 mph 7.4 mph 58 % 0.0 in 0.0 W/m2 CLR
23:17 19.9 °F 11.6 °F 1014.4 in SE 5.6 mph 5.6 mph 59 % 0.0 in 0.0 W/m2 CLR
23:22 19.9 °F 11.7 °F 1014.4 in SE 6.4 mph 6.4 mph 59 % 0.0 in 0.0 W/m2 CLR
23:27 19.8 °F 11.3 °F 1014.4 in ESE 5.6 mph 5.6 mph 58 % 0.0 in 0.0 W/m2 CLR
23:32 19.7 °F 11.4 °F 1014.4 in Calm     59 % 0.0 in 0.0 W/m2 CLR
23:37 19.4 °F 11.5 °F 1014.4 in Calm     60 % 0.0 in 0.0 W/m2 CLR
23:42 19.3 °F 11.6 °F 1014.4 in Calm     61 % 0.0 in 0.0 W/m2 CLR
23:47 19.3 °F 11.3 °F 1014.4 in Calm     60 % 0.0 in 0.0 W/m2 CLR
23:52 19.1 °F 11.2 °F 1014.4 in Calm     60 % 0.0 in 0.0 W/m2 CLR
23:57 18.8 °F 11.2 °F 1014.4 in Calm     61 % 0.0 in 0.0 W/m2 CLR
Lo Temps de Massalio
Compliments of Weather Underground - 1.25 mb